Temp
58 58 58 59 59 58 58 58 58 58 59 60 62 63 63 63 63 64 65 67 67 67 66 65 66 68 68 67 68 67 66 65 63 64 60 61 62 62 62 63 63 63 61
60 58 58 57 57 57 58 59 59 59 60 61 62 63 64 64 63 62 63 66 67 65 66 66 67 67 68 68 68 68 65 63 63 61 60 60 60 60 61 61 62 63 61
57 57 57 57 56 56 57 58 58 59 59 60 62 63 63 64 63 63 63 65 66 67 69 69 68 68 68 69 69 67 65 64 62 60 59 59 59 59 59 59 59 59 61
58 56 56 55 56 56 56 56 57 58 58 59 60 62 63 64 64 64 64 63 64 68 68 69 71 70 69 69 69 67 63 62 61 60 58 58 58 58 58 57 56 57 57
57 56 55 54 54 55 55 56 57 58 59 59 60 61 61 64 67 63 63 62 62 63 65 69 69 69 66 67 69 67 63 62 59 58 57 56 56 56 57 56 56 56 56
58 57 57 56 56 55 54 55 55 55 56 57 58 58 59 65 60 56 59 60 61 61 63 65 68 65 65 58 58 59 62 62 61 59 57 57 56 57 56 56 55 54 55
55 57 59 58 58 57 56 56 55 54 54 54 55 56 57 60 54 52 54 59 58 58 60 62 65 68 63 68 58 55 55 56 58 62 58 58 57 57 57 55 55 55 55
56 58 60 59 59 56 55 54 53 51 51 51 53 54 56 60 53 50 51 56 57 59 61 62 63 66 67 66 64 62 61 60 60 61 61 60 60 59 59 58 57 57 57
55 56 56 57 57 56 55 54 52 50 50 50 54 55 53 54 50 50 51 57 58 59 61 63 65 66 57 49 62 61 59 58 53 49 51 49 48 49 55 58 56 56 56
53 56 58 59 58 57 57 55 53 50 53 55 56 52 53 55 51 45 47 57 57 58 60 62 54 59 47 48 62 61 58 57 58 57 57 53 53 51 50 59 58 57 57
53 54 56 58 58 58 56 54 53 52 53 52 52 52 52 54 56 46 44 55 57 58 60 62 63 46 46 47 53 61 59 57 54 57 56 56 56 58 58 58 58 59 57
54 52 53 55 56 57 52 53 51 51 49 49 48 49 51 54 48 49 44 45 50 56 58 62 61 46 47 46 52 49 46 52 56 55 54 56 55 56 57 59 58 58 60
52 52 52 54 54 55 53 50 48 48 50 49 49 50 51 53 54 46 45 48 45 51 57 58 48 46 43 48 46 45 48 57 56 57 56 57 56 57 57 58 57 58 60
51 51 52 53 52 53 53 52 51 50 48 49 49 49 50 52 54 54 55 55 47 49 49 49 49 51 49 49 50 52 58 57 57 57 56 55 57 57 55 55 55 56 56
50 51 52 52 51 53 54 53 52 53 52 51 51 52 52 52 54 52 52 56 57 53 53 54 57 57 56 56 57 57 56 56 56 55 55 55 55 55 55 55 55 55 54
47 49 49 50 49 50 51 50 42 45 45 45 46 49 54 48 45 43 43 43 45 45 56 58 58 58 57 57 57 57 55 54 56 55 55 56 55 55 56 55 55 55 54
46 47 49 49 49 49 49 48 48 45 43 44 42 42 40 46 42 42 41 42 42 45 58 58 58 58 56 56 56 57 55 55 56 56 55 56 57 58 56 58 57 55 56
47 45 48 48 49 50 50 50 50 48 49 49 43 43 41 40 40 41 40 43 49 49 59 58 57 56 55 55 55 54 55 56 56 55 56 58 58 58 57 57 57 57 56
47 47 47 49 50 50 51 49 50 50 50 49 50 44 43 40 40 40 42 57 57 58 57 57 56 56 56 56 56 55 56 56 56 55 56 58 56 56 54 56 54 45 50
49 46 46 48 50 51 51 51 51 51 50 52 52 51 47 45 47 49 54 59 58 58 57 56 56 57 57 57 56 55 54 54 55 55 56 55 55 57 54 53 53 52 52
48 49 47 51 51 52 53 53 52 52 53 53 52 49 41 53 53 57 58 58 58 58 57 56 57 57 57 56 56 56 55 55 55 58 58 58 58 57 57 57 57 56 55
50 50 50 50 53 53 54 56 56 55 55 53 52 49 39 58 58 58 57 58 58 58 58 58 57 57 58 57 56 56 56 58 58 59 58 58 58 57 57 57 55 54 53
53 53 54 52 53 51 55 57 56 55 55 55 55 54 58 58 57 57 57 57 57 57 57 57 56 55 56 56 56 56 56 58 59 59 59 58 57 56 56 54 53 54 53
57 58 58 58 58 57 56 56 56 51 56 57 57 57 56 56 54 53 52 53 54 54 55 56 56 55 54 54 55 55 56 57 58 59 58 55 50 49 52 52 51 50 47
58 58 58 57 56 56 56 56 56 55 54 54 53 52 51 50 48 48 49 49 50 50 50 51 52 52 51 51 50 49 41 40 51 45 54 54 52 51 50 50 48 47 46
56 56 55 55 55 54 54 53 53 52 51 51 50 48 47 46 46 48 48 48 47 46 47 48 46 45 45 44 43 39 39 40 46 43 55 54 51 50 49 46 43 42 40
MSLP
1003.84 1004.10 1004.52 1004.74 1004.93 1005.19 1005.42 1005.58 1005.87 1006.24 1006.59 1006.96 1006.98 1007.26 1007.46 1007.38 1007.16 1007.25 1007.35 1007.24 1007.53 1007.45 1006.92 1006.91 1006.96 1006.65 1007.08 1007.18 1007.30 1007.28 1007.32 1007.90 1008.30 1007.44 1007.46 1007.30 1006.94 1007.05 1007.26 1007.10 1007.56 1007.83 1008.15
1003.21 1003.76 1004.10 1004.30 1004.73 1005.06 1005.22 1005.36 1005.61 1005.97 1006.25 1006.55 1006.88 1007.14 1006.96 1006.71 1006.75 1006.85 1006.84 1007.05 1006.95 1006.55 1006.35 1006.54 1006.16 1006.53 1005.93 1005.56 1005.99 1005.92 1006.77 1007.31 1007.54 1007.31 1007.09 1007.00 1007.07 1007.32 1007.15 1007.49 1007.94 1007.84 1008.21
1003.87 1004.15 1003.90 1004.10 1004.63 1004.89 1005.02 1005.07 1005.32 1005.61 1005.93 1006.13 1006.28 1006.50 1006.58 1006.62 1006.54 1006.37 1006.52 1006.54 1006.16 1006.15 1005.80 1005.88 1005.43 1005.41 1005.16 1004.75 1004.82 1005.62 1005.95 1006.21 1006.64 1006.94 1006.82 1007.02 1007.48 1007.13 1007.44 1007.81 1008.11 1007.97 1008.26
1002.96 1003.53 1004.12 1003.95 1004.03 1004.34 1004.60 1004.89 1004.98 1005.19 1005.48 1005.66 1005.82 1005.99 1006.09 1006.01 1006.08 1006.02 1005.78 1006.10 1005.66 1005.60 1005.34 1004.92 1004.47 1004.55 1004.49 1004.44 1004.49 1004.81 1004.95 1005.66 1006.06 1006.17 1006.47 1007.04 1007.12 1007.27 1007.21 1007.90 1008.23 1008.22 1008.30
1002.65 1002.60 1003.21 1003.83 1004.10 1004.06 1004.33 1004.47 1004.62 1004.81 1004.95 1005.12 1005.43 1005.41 1005.56 1005.59 1005.48 1005.52 1005.45 1005.48 1005.45 1005.26 1004.84 1004.47 1004.08 1003.77 1003.73 1003.66 1003.82 1003.91 1004.33 1005.01 1005.11 1005.66 1006.34 1006.95 1007.02 1007.11 1007.08 1007.52 1007.96 1008.35 1008.27
1002.48 1002.51 1002.29 1002.78 1003.27 1003.64 1003.97 1004.26 1004.37 1004.45 1004.73 1004.83 1004.95 1005.08 1005.24 1004.93 1004.64 1004.53 1004.61 1004.77 1004.85 1004.73 1004.51 1004.08 1003.52 1003.21 1002.85 1002.82 1002.86 1002.63 1003.05 1003.79 1004.38 1005.02 1005.74 1006.18 1006.34 1006.27 1006.60 1007.34 1007.92 1008.51 1008.53
1002.41 1002.49 1002.18 1002.17 1002.52 1002.80 1003.00 1003.28 1003.60 1003.95 1004.19 1004.39 1004.55 1004.68 1004.70 1004.52 1004.29 1004.05 1003.82 1003.88 1004.26 1004.09 1003.89 1003.37 1002.93 1002.40 1002.24 1002.03 1002.13 1002.31 1002.69 1003.04 1002.76 1003.55 1004.78 1005.18 1005.38 1005.47 1006.01 1006.97 1007.38 1007.73 1007.91
1001.58 1001.57 1001.63 1001.62 1001.66 1001.81 1002.01 1002.37 1002.93 1003.38 1003.63 1003.85 1003.93 1004.07 1004.06 1003.90 1003.69 1003.63 1003.48 1003.42 1003.71 1003.58 1003.22 1002.87 1002.57 1002.00 1001.58 1001.63 1002.06 1002.54 1002.96 1003.53 1003.40 1003.44 1003.67 1004.04 1004.32 1004.79 1005.31 1005.71 1006.55 1007.19 1007.48
1000.67 1000.56 1000.72 1000.75 1000.82 1001.02 1001.33 1001.78 1002.21 1002.72 1002.93 1003.13 1003.15 1003.36 1003.54 1003.55 1003.30 1003.09 1003.11 1003.11 1003.05 1002.88 1002.44 1002.18 1001.91 1001.47 1001.19 1001.73 1002.28 1002.64 1003.08 1003.65 1003.80 1003.43 1003.55 1003.70 1004.12 1004.63 1005.10 1005.66 1006.67 1007.08 1007.42
999.78 999.75 999.91 999.89 999.93 1000.10 1000.22 1000.78 1001.36 1001.70 1002.06 1002.40 1002.39 1002.59 1002.84 1002.86 1002.58 1002.46 1002.53 1002.50 1002.61 1002.32 1001.93 1001.57 1001.28 1000.91 1001.06 1001.27 1001.30 1001.74 1002.84 1003.31 1003.45 1003.74 1003.92 1004.14 1004.56 1004.89 1005.08 1005.41 1006.09 1006.59 1007.17
998.50 998.71 998.60 998.52 998.66 998.87 999.47 999.97 1000.37 1000.92 1001.32 1001.48 1001.51 1001.70 1001.91 1001.94 1001.88 1001.69 1001.85 1001.99 1001.92 1001.80 1001.59 1001.21 1000.80 1000.71 1000.68 1000.57 1000.27 1000.46 1002.11 1002.87 1003.43 1003.76 1004.03 1004.49 1004.79 1005.20 1005.46 1005.54 1005.80 1005.98 1006.57
996.76 997.17 997.29 997.20 997.51 997.91 998.42 998.90 999.49 1000.05 1000.64 1000.83 1001.13 1001.18 1001.10 1001.19 1001.17 1000.91 1000.96 1001.35 1001.10 1001.45 1001.10 1000.66 1000.10 1000.25 1000.52 1000.60 1000.51 1000.66 1002.47 1002.87 1003.45 1003.86 1004.29 1004.79 1005.10 1005.32 1005.34 1005.50 1005.61 1005.86 1006.13
994.92 995.39 995.93 996.41 996.55 996.80 997.35 998.10 998.80 999.33 999.96 1000.27 1000.38 1000.44 1000.46 1000.42 1000.26 1000.24 1000.38 1000.69 1000.78 1001.11 1000.60 999.83 999.85 1000.30 1000.94 1000.66 1001.18 1001.76 1002.34 1002.81 1003.41 1003.96 1004.50 1004.88 1004.96 1005.08 1005.36 1005.54 1005.70 1006.05 1006.23
993.25 993.83 994.45 994.96 995.58 996.11 996.53 997.11 997.79 998.42 998.98 999.31 999.53 999.70 999.72 999.47 999.47 999.46 999.62 999.83 1000.06 1000.31 1000.08 1000.04 1000.04 1000.41 1000.50 1000.73 1002.02 1002.46 1002.13 1002.57 1003.16 1003.89 1004.42 1004.76 1004.90 1005.22 1005.42 1005.60 1006.05 1006.26 1006.43
992.13 992.67 993.28 993.90 994.61 995.07 995.55 996.11 996.69 997.19 997.63 998.15 998.34 998.49 998.67 998.58 998.35 998.29 998.75 999.11 999.24 999.47 999.62 999.77 999.90 1000.19 1000.51 1001.13 1001.80 1001.97 1002.32 1002.79 1003.30 1003.82 1004.25 1004.43 1004.81 1005.21 1005.57 1005.72 1005.96 1006.28 1006.54
991.32 991.96 992.50 993.23 993.96 994.50 995.03 995.60 995.88 996.39 996.97 997.06 997.17 997.73 997.82 997.59 997.59 997.95 998.26 998.58 998.56 999.30 999.10 999.13 999.24 1000.01 1000.22 1001.20 1001.62 1001.88 1002.41 1002.90 1003.31 1003.67 1003.88 1004.19 1004.81 1005.33 1005.61 1005.79 1005.90 1006.20 1006.57
990.69 991.37 991.99 992.67 993.25 993.84 994.47 995.02 995.50 996.03 996.42 996.58 996.76 996.79 997.14 997.28 997.27 997.57 997.84 998.24 998.48 998.95 998.51 998.69 998.62 999.55 1000.43 1001.14 1001.22 1001.70 1002.41 1002.77 1003.06 1003.43 1003.71 1004.26 1004.84 1005.21 1005.40 1005.63 1005.89 1006.14 1006.43
990.34 990.96 991.57 992.10 992.67 993.20 993.66 994.14 994.66 995.07 995.35 995.60 995.73 996.12 996.36 996.65 996.87 997.29 997.54 998.01 998.59 998.39 998.04 997.98 998.40 999.29 1000.10 1000.69 1001.20 1001.70 1002.20 1002.61 1003.14 1003.40 1003.90 1004.48 1004.84 1004.98 1005.36 1005.61 1005.81 1006.13 1006.57
990.02 990.58 991.23 991.67 992.07 992.47 992.97 993.53 993.92 994.18 994.41 994.61 994.79 995.22 995.47 995.94 996.52 996.81 996.94 996.92 996.94 997.19 997.55 998.15 998.40 999.13 1000.07 1000.49 1001.11 1001.43 1001.96 1002.70 1002.88 1003.39 1003.99 1004.36 1004.61 1004.91 1005.34 1005.51 1005.88 1006.29 1006.62
990.09 990.48 991.06 991.39 991.67 991.93 992.28 992.69 992.97 993.20 993.44 993.64 993.94 994.17 994.73 995.28 995.68 996.02 996.21 995.88 996.24 996.40 997.18 997.68 998.50 999.24 999.85 1000.25 1000.64 1001.37 1002.10 1002.47 1002.94 1003.47 1003.92 1004.26 1004.57 1004.86 1005.32 1005.75 1006.16 1006.60 1006.88
990.10 990.38 990.74 991.08 991.42 991.43 991.55 991.86 992.16 992.38 992.46 992.73 992.88 993.16 993.56 993.77 994.32 994.85 994.99 995.38 995.97 996.25 996.82 997.72 998.62 999.03 999.37 999.94 1000.80 1001.35 1001.89 1002.47 1002.91 1003.31 1003.61 1004.10 1004.57 1005.01 1005.43 1005.89 1006.23 1006.46 1006.80
989.56 989.92 990.25 990.53 990.61 990.87 990.95 991.06 991.22 991.48 991.93 992.22 992.53 993.09 993.20 993.37 993.93 994.51 995.20 995.71 996.26 996.60 997.14 997.76 998.29 998.69 999.40 1000.12 1000.76 1001.43 1002.00 1002.42 1002.83 1003.19 1003.72 1004.29 1004.77 1005.22 1005.61 1005.98 1006.37 1006.78 1007.17
988.81 989.03 989.21 989.60 989.97 990.08 990.47 990.60 990.85 991.22 991.64 991.91 992.20 992.68 992.98 993.63 994.12 994.86 995.38 995.93 996.29 996.84 997.43 997.95 998.60 999.39 999.82 1000.43 1000.88 1001.28 1001.91 1002.29 1002.61 1003.06 1003.70 1004.36 1004.98 1005.48 1005.87 1006.42 1006.96 1007.52 1007.96
988.06 988.14 988.41 988.77 989.20 989.69 990.13 990.40 990.79 991.52 991.87 992.22 992.79 993.23 993.38 994.10 994.92 995.46 995.94 996.46 997.08 997.71 998.10 998.52 999.11 999.79 1000.45 1000.93 1001.29 1001.72 1002.13 1002.46 1002.70 1003.25 1003.74 1004.54 1005.52 1006.07 1006.54 1007.20 1007.85 1008.47 1008.99
988.76 988.86 989.26 989.64 990.08 990.53 991.03 991.30 991.70 992.00 992.67 993.40 993.49 993.62 994.72 995.64 996.12 996.70 997.21 997.73 998.18 998.73 999.31 999.67 1000.08 1000.60 1001.00 1001.37 1001.80 1002.23 1002.58 1002.77 1003.16 1003.77 1004.45 1005.19 1005.95 1006.60 1007.21 1007.94 1008.62 1009.31 1009.84
989.83 989.92 990.17 990.52 990.88 991.26 991.58 991.98 992.67 993.19 993.87 994.52 995.10 995.71 996.39 996.92 997.29 997.75 998.26 998.75 999.32 999.86 1000.22 1000.71 1001.10 1001.33 1001.75 1002.25 1002.68 1002.97 1003.18 1003.47 1003.95 1004.39 1004.96 1005.77 1006.60 1007.55 1008.22 1008.90 1009.60 1010.20 1010.86
Wind_Speed
8 7 7 7 7 4 3 2 2 1 3 5 5 5 6 6 5 5 6 7 8 9 5 7 11 12 8 7 7 7 5 6 9 6 3 2 1 3 3 4 3 3 1
8 7 8 7 6 6 6 6 6 6 5 6 5 5 6 6 6 5 5 7 7 7 8 8 12 7 13 9 6 7 6 8 7 10 4 3 1 1 3 3 2 2 1
3 6 7 7 7 8 7 6 5 4 4 4 5 6 6 6 6 6 6 7 7 9 10 11 12 9 11 7 7 8 6 5 6 4 3 1 0 2 3 2 1 2 0
6 5 6 7 8 7 6 5 4 4 3 2 3 4 6 6 6 7 6 7 7 9 10 13 12 11 12 9 9 9 7 6 6 3 3 3 2 1 3 3 2 1 1
6 7 7 5 5 6 6 6 5 3 3 3 5 4 6 6 6 7 7 7 7 8 8 12 13 13 15 13 8 8 8 6 4 4 3 2 3 3 4 3 2 1 1
6 7 8 9 8 8 7 7 7 5 5 4 5 5 7 8 12 14 11 6 6 7 10 12 12 14 15 15 16 12 11 9 8 5 4 4 5 4 4 4 4 2 2
7 8 9 9 11 11 9 7 6 6 6 6 6 6 8 10 14 15 15 5 6 7 8 11 12 10 10 11 11 11 10 12 8 11 6 6 5 7 7 5 4 4 4
12 12 14 12 13 8 7 7 7 6 7 7 7 7 8 9 14 15 15 6 6 7 10 12 12 14 10 10 9 7 7 6 4 4 6 6 5 6 7 6 6 4 2
17 15 11 10 11 9 10 9 8 6 6 7 7 8 7 8 13 15 11 5 5 8 9 10 12 12 9 11 7 7 6 2 2 6 5 4 6 8 8 6 4 4 2
17 17 16 14 15 14 13 11 8 6 9 8 10 7 10 10 13 14 9 3 4 4 6 8 12 10 13 14 10 9 8 5 5 4 4 6 5 3 6 4 6 6 3
18 18 20 18 18 17 14 11 9 8 8 9 8 8 8 9 11 12 10 3 4 4 5 7 7 11 17 15 11 9 7 7 5 5 4 4 3 4 4 3 5 4 3
18 18 15 14 13 12 10 9 7 7 7 9 8 8 6 8 12 13 12 11 5 4 7 7 8 14 15 10 9 13 12 8 5 4 4 3 2 3 3 4 4 3 3
19 18 18 18 13 13 11 8 5 6 9 9 7 8 7 5 6 13 10 13 9 4 7 10 6 10 7 8 5 14 11 6 5 5 4 3 2 3 4 3 4 2 1
18 17 14 14 12 10 7 7 8 8 9 8 8 8 8 8 8 6 5 6 6 6 5 5 7 8 3 8 6 7 5 6 6 6 4 3 3 3 2 2 2 2 2
15 14 15 11 12 11 10 10 10 11 10 9 9 8 8 9 9 9 8 6 5 7 7 6 7 7 4 5 5 4 4 5 5 4 4 4 3 3 2 2 2 2 2
14 12 9 9 8 8 8 8 7 10 13 15 13 11 8 12 10 10 12 11 12 15 7 8 8 8 8 6 7 5 3 4 4 4 4 4 4 4 3 2 2 2 2
12 11 9 9 9 9 8 8 8 6 10 14 12 13 10 10 10 10 11 13 15 15 6 9 10 9 8 7 8 8 5 4 5 4 4 4 4 3 4 3 3 2 2
12 11 7 7 7 8 8 8 8 7 8 8 13 14 17 16 12 12 9 11 8 6 7 9 9 8 7 7 7 5 4 4 4 4 4 4 4 4 3 3 3 3 2
7 7 8 8 8 8 8 8 8 8 7 6 4 5 9 10 12 15 20 9 11 9 8 7 8 8 8 7 6 5 5 5 4 4 4 4 4 4 3 3 3 3 4
9 10 8 5 4 7 7 7 8 8 7 7 7 7 6 7 6 6 9 8 7 8 8 9 8 8 8 7 6 5 5 4 4 4 4 4 4 4 4 4 4 3 2
4 4 7 7 7 7 7 7 7 7 7 6 3 5 8 8 10 11 8 7 7 7 7 7 7 7 6 6 6 6 5 5 4 4 5 4 4 4 4 4 4 4 4
7 7 7 8 5 7 7 6 7 7 6 6 5 5 8 8 8 9 8 8 6 6 6 7 6 6 6 7 6 6 6 6 4 5 5 5 5 5 4 4 4 4 4
10 11 9 10 10 9 8 7 7 7 8 7 8 5 8 8 7 7 8 7 6 6 6 6 7 6 5 5 4 6 5 5 4 5 7 6 5 5 5 5 5 5 6
6 4 7 8 7 9 8 8 8 9 8 6 7 7 8 9 8 9 8 7 7 7 6 6 6 8 7 5 5 5 5 5 4 7 9 8 7 7 7 8 7 9 8
8 8 8 8 8 8 10 9 9 10 10 11 8 9 10 9 9 8 8 7 8 8 8 7 7 8 9 9 8 8 8 9 10 9 9 11 12 11 9 8 9 9 9
9 9 8 7 8 8 8 10 10 10 10 9 9 9 9 9 8 9 8 8 8 8 9 7 8 12 11 9 10 11 12 12 12 12 11 10 11 9 9 11 12 9 9
Wind_Direction
185 190 200 206 208 202 202 241 248 272 257 265 238 239 251 246 235 215 236 261 260 262 244 253 256 251 236 224 219 224 223 199 242 273 240 249 118 133 131 98 118 110 23
191 191 202 192 198 205 205 213 204 216 210 219 237 257 261 255 261 251 264 276 254 269 270 248 240 246 259 257 231 239 212 209 218 241 219 216 162 202 103 105 112 97 121
275 237 206 209 196 212 210 196 185 187 213 212 204 219 229 238 250 244 237 260 271 274 269 257 254 236 253 254 235 239 212 203 204 205 212 89 217 122 84 50 140 99 118
173 211 244 209 196 192 189 195 189 190 225 267 246 244 247 243 236 245 239 252 263 271 271 275 274 267 258 247 235 226 203 200 208 197 150 169 173 168 122 153 209 211 191
195 169 200 218 227 192 199 204 217 234 255 249 265 266 258 253 256 239 236 235 243 263 267 271 269 262 251 239 233 229 197 204 155 165 163 170 178 164 183 162 163 162 241
218 213 197 193 198 207 210 214 206 207 226 246 267 269 278 277 267 242 234 233 244 257 275 274 267 261 261 246 231 217 195 182 182 170 172 192 201 179 133 159 138 148 226
232 247 236 214 214 212 206 203 212 227 242 253 250 250 263 270 265 247 242 230 236 251 263 275 277 272 259 258 245 231 212 216 182 174 174 198 171 184 139 157 163 161 194
275 258 244 228 224 208 202 206 211 206 215 221 230 235 254 266 255 245 245 242 250 249 254 261 263 271 260 239 232 206 204 206 184 180 179 176 183 161 171 164 163 144 83
257 255 242 223 222 208 217 213 206 204 215 218 229 238 237 250 248 246 248 241 243 254 259 261 259 263 245 216 192 160 119 191 24 77 107 137 175 165 147 115 146 148 178
252 253 251 230 226 221 219 217 207 197 219 226 235 219 229 249 260 243 225 201 243 257 273 265 261 246 180 181 157 149 161 191 165 131 99 78 103 141 158 154 150 164 133
247 251 241 235 226 221 213 204 202 210 221 222 232 236 231 225 251 245 230 209 220 246 268 274 261 201 183 182 150 139 187 153 145 131 110 101 101 136 168 150 167 143 151
235 239 251 233 217 214 206 210 193 200 222 232 231 238 237 234 227 248 239 212 232 230 261 259 240 200 206 170 156 125 159 137 132 122 113 137 154 162 168 175 162 166 186
229 229 229 233 228 213 211 199 197 194 219 219 221 235 239 231 235 228 240 252 235 219 250 251 189 164 158 121 119 151 158 140 133 134 148 168 171 145 120 91 72 119 166
221 218 222 219 207 203 205 207 207 206 213 215 221 228 231 231 229 217 209 243 227 224 173 151 151 140 131 112 104 182 148 144 145 152 153 141 117 110 104 121 122 137 127
218 210 210 207 206 215 216 211 207 217 208 213 214 214 217 226 219 197 191 207 203 197 153 151 153 134 149 117 153 134 122 129 130 138 153 139 121 120 127 145 117 118 115
205 204 209 212 198 203 207 208 222 210 208 222 216 205 223 224 204 205 212 210 184 165 170 173 152 145 143 164 159 137 119 145 151 153 143 130 139 152 154 140 113 131 141
197 193 195 191 190 190 194 198 208 224 221 239 228 223 227 234 210 224 220 208 177 166 181 175 151 155 157 167 154 154 153 163 142 135 129 135 144 146 146 148 132 129 99
192 178 179 171 187 195 197 195 197 198 213 238 230 222 229 231 236 241 196 152 166 216 177 168 156 153 155 157 155 148 142 134 146 136 133 153 154 139 142 145 146 139 120
162 174 186 195 192 188 192 196 205 208 211 216 197 194 226 225 202 193 166 184 178 169 154 157 149 145 160 153 157 140 138 158 142 133 148 153 145 139 154 157 125 101 115
190 185 179 192 190 191 193 193 199 204 206 217 222 221 150 137 161 161 187 164 152 151 151 145 144 150 153 150 133 134 135 132 131 142 153 154 162 152 133 125 127 130 122
201 191 189 191 197 210 196 191 200 203 204 210 173 154 172 164 147 169 142 140 137 140 130 133 148 142 129 119 133 134 132 135 139 144 137 140 136 125 120 122 126 123 133
198 197 194 208 200 193 204 194 183 175 152 140 141 147 166 132 132 134 129 137 145 136 133 138 129 123 132 140 136 133 139 147 146 140 124 105 108 113 116 112 100 95 89
211 210 182 196 206 201 189 167 156 137 138 152 133 142 129 116 109 113 113 106 102 97 100 110 109 100 99 109 124 136 138 146 140 127 122 119 116 106 98 92 87 76 80
91 89 105 93 115 115 117 119 127 129 138 127 116 112 109 99 98 89 84 83 88 82 83 94 105 113 108 102 104 109 112 113 107 109 112 107 100 91 91 86 85 88 89
74 81 89 90 90 102 114 111 98 92 90 90 97 99 87 90 87 84 84 85 84 87 78 85 92 97 100 108 106 104 105 97 97 97 95 99 99 96 97 95 99 93 91
59 65 67 71 79 81 91 92 90 94 96 97 91 90 94 93 88 88 87 92 95 86 87 81 82 91 87 81 92 101 99 96 95 97 103 103 102 96 97 98 92 89 83